DW4379 Weather Reports


Display with metric or nautical units.
time (UTC)temp
F
wind
direction
speed
MPH
gust
MPH
rain 1hr
in
rain 24hr
in
rain mn
in
humidity
%
barometer
mb
20260507235503 62 223 0.0 3.0 0.00 0.00 0.00 48 1012.2
20260507235003 62 221 0.0 3.0 0.00 0.00 0.00 48 1012.1
20260507234503 62 234 0.0 3.0 0.00 0.00 0.00 47 1012.2
20260507234009 62 238 0.0 3.0 0.00 0.00 0.00 48 1012.1
20260507233503 62 226 0.0 2.0 0.00 0.00 0.00 48 1012.1
20260507233004 62 230 0.0 2.0 0.00 0.00 0.00 47 1012.1
20260507232503 62 238 0.0 3.0 0.00 0.00 0.00 47 1012.2
20260507232003 62 236 0.0 3.0 0.00 0.00 0.00 46 1012.2
20260507231503 62 202 0.0 3.0 0.00 0.00 0.00 47 1012.2
20260507231004 62 215 0.0 3.0 0.00 0.00 0.00 48 1012.2
20260507230503 62 239 1.0 4.0 0.00 0.00 0.00 47 1012.3
20260507230004 62 232 1.0 5.0 0.00 0.00 0.00 45 1012.3
20260507225503 62 229 1.0 5.0 0.00 0.00 0.00 46 1012.3
20260507225003 63 233 1.0 4.0 0.00 0.00 0.00 46 1012.4
20260507224504 63 237 1.0 4.0 0.00 0.00 0.00 46 1012.4
20260507224003 63 231 1.0 4.0 0.00 0.00 0.00 45 1012.4
20260507223718 63 233 1.0 4.0 0.00 0.00 0.00 44 1012.5
20260507223217 63 243 1.0 4.0 0.00 0.00 0.00 45 1012.5
20260507222718 63 239 1.0 5.0 0.00 0.00 0.00 44 1012.5
20260507222004 63 227 1.0 5.0 0.00 0.00 0.00 43 1012.5
20260507221503 64 237 1.0 5.0 0.00 0.00 0.00 44 1012.5
20260507221009 64 242 1.0 6.0 0.00 0.00 0.00 44 1012.5
20260507220503 64 243 1.0 6.0 0.00 0.00 0.00 43 1012.4
20260507220003 64 235 1.0 4.0 0.00 0.00 0.00 44 1012.4
20260507215718 64 240 1.0 4.0 0.00 0.00 0.00 43 1012.5
20260507215003 64 256 0.0 4.0 0.00 0.00 0.00 43 1012.5
20260507214503 64 244 0.0 1.0 0.00 0.00 0.00 43 1012.4
20260507214003 64 230 1.0 8.0 0.00 0.00 0.00 43 1012.4
20260507213503 64 229 1.0 8.0 0.00 0.00 0.00 42 1012.4
20260507213003 64 216 0.0 3.0 0.00 0.00 0.00 43 1012.4
20260507212718 64 233 1.0 6.0 0.00 0.00 0.00 42 1012.4
20260507212003 64 208 1.0 6.0 0.00 0.00 0.00 42 1012.4
20260507211503 64 226 1.0 5.0 0.00 0.00 0.00 42 1012.4
20260507211003 64 229 1.0 5.0 0.00 0.00 0.00 41 1012.5
20260507210718 64 213 1.0 5.0 0.00 0.00 0.00 40 1012.5
20260507210219 64 228 1.0 4.0 0.00 0.00 0.00 42 1012.6
20260507205504 64 237 1.0 4.0 0.00 0.00 0.00 41 1012.6
20260507205003 64 237 0.0 4.0 0.00 0.00 0.00 42 1012.8
20260507204504 64 234 0.0 4.0 0.00 0.00 0.00 43 1012.9
20260507204003 64 246 1.0 5.0 0.00 0.00 0.00 41 1013.0
20260507203503 64 266 1.0 5.0 0.00 0.00 0.00 42 1013.1
20260507203219 64 279 0.0 4.0 0.00 0.00 0.00 40 1013.1
20260507202504 65 148 0.0 4.0 0.00 0.00 0.00 41 1013.2
20260507202004 64 133 1.0 4.0 0.00 0.00 0.00 41 1013.2
20260507201503 64 188 1.0 4.0 0.00 0.00 0.00 42 1013.2
20260507201218 64 249 1.0 4.0 0.00 0.00 0.00 40 1013.3
20260507200503 64 239 1.0 5.0 0.00 0.00 0.00 40 1013.3
20260507200003 64 256 1.0 4.0 0.00 0.00 0.00 41 1013.4
20260507195503 64 272 1.0 4.0 0.00 0.00 0.00 40 1013.5
20260507195218 64 282 1.0 4.0 0.00 0.00 0.00 40 1013.6
20260507194717 64 184 1.0 4.0 0.00 0.00 0.00 39 1013.6
20260507194003 64 187 1.0 7.0 0.00 0.00 0.00 40 1013.6
20260507193503 64 228 1.0 7.0 0.00 0.00 0.00 41 1013.6
20260507193003 64 240 1.0 5.0 0.00 0.00 0.00 40 1013.7
20260507192503 64 238 0.0 3.0 0.00 0.00 0.00 41 1013.8
20260507192003 64 237 0.0 2.0 0.00 0.00 0.00 40 1013.8
20260507191503 64 273 0.0 3.0 0.00 0.00 0.00 41 1013.9
20260507191003 64 284 1.0 3.0 0.00 0.00 0.00 41 1013.9
20260507190503 63 286 1.0 3.0 0.00 0.00 0.00 41 1013.9
20260507190005 63 270 1.0 3.0 0.00 0.00 0.00 39 1014.0
20260507185503 63 273 1.0 3.0 0.00 0.00 0.00 39 1014.1
20260507185003 64 271 1.0 4.0 0.00 0.00 0.00 38 1014.2
20260507184504 64 279 1.0 4.0 0.00 0.00 0.00 41 1014.2
20260507184003 64 282 1.0 3.0 0.00 0.00 0.00 41 1014.1
20260507183503 64 249 0.0 4.0 0.00 0.00 0.00 39 1014.2
20260507183003 64 212 0.0 4.0 0.00 0.00 0.00 40 1014.2
20260507182503 63 210 1.0 4.0 0.00 0.00 0.00 41 1014.3
20260507182003 63 245 1.0 7.0 0.00 0.00 0.00 40 1014.2
20260507181504 62 249 0.0 7.0 0.00 0.00 0.00 40 1014.3
20260507181003 63 235 1.0 5.0 0.00 0.00 0.00 40 1014.3
20260507180719 63 254 1.0 5.0 0.00 0.00 0.00 38 1014.5
20260507180003 63 35 1.0 4.0 0.00 0.00 0.00 42 1014.5
20260507175719 62 67 1.0 4.0 0.00 0.00 0.00 44 1014.5
20260507175003 62 272 1.0 3.0 0.00 0.00 0.00 41 1014.5
20260507174718 62 284 1.0 3.0 0.00 0.00 0.00 39 1014.6
20260507174003 62 316 1.0 3.0 0.00 0.00 0.00 43 1014.5
20260507173503 62 43 1.0 3.0 0.00 0.00 0.00 44 1014.6
20260507173004 61 141 1.0 5.0 0.00 0.00 0.00 42 1014.6
20260507172503 62 205 1.0 5.0 0.00 0.00 0.00 41 1014.6
20260507172003 62 258 1.0 6.0 0.00 0.00 0.00 41 1015.1
20260507171503 62 217 1.0 6.0 0.00 0.00 0.00 44 1015.1
20260507171003 62 178 1.0 4.0 0.00 0.00 0.00 43 1015.0
20260507170503 62 224 0.0 3.0 0.00 0.00 0.00 44 1015.0
20260507170003 61 241 1.0 3.0 0.00 0.00 0.00 44 1015.1
20260507165503 61 232 1.0 3.0 0.00 0.00 0.00 46 1015.1
20260507165003 61 224 1.0 5.0 0.00 0.00 0.00 41 1015.1
20260507164503 61 230 1.0 5.0 0.00 0.00 0.00 46 1015.2
20260507164003 61 194 1.0 5.0 0.00 0.00 0.00 44 1015.3
20260507163503 60 96 0.0 4.0 0.00 0.00 0.00 46 1015.3
20260507163003 60 324 0.0 1.0 0.00 0.00 0.00 44 1015.3
20260507162718 60 276 0.0 2.0 0.00 0.00 0.00 46 1015.3
20260507162003 59 291 0.0 2.0 0.00 0.00 0.00 44 1015.4
20260507161503 59 156 0.0 4.0 0.00 0.00 0.00 48 1015.6
20260507161217 58 157 0.0 4.0 0.00 0.00 0.00 49 1015.6
20260507160504 58 229 1.0 6.0 0.00 0.00 0.00 50 1015.7
20260507160217 57 235 1.0 6.0 0.00 0.00 0.00 51 1015.7
20260507155503 58 239 0.0 4.0 0.00 0.00 0.00 51 1015.8
20260507155003 57 254 0.0 4.0 0.00 0.00 0.00 51 1015.8
20260507154503 57 233 0.0 4.0 0.00 0.00 0.00 51 1015.8
20260507154217 57 228 0.0 4.0 0.00 0.00 0.00 50 1015.7
20260507153504 56 49 0.0 1.0 0.00 0.00 0.00 52 1015.8
20260507153003 56 186 0.0 2.0 0.00 0.00 0.00 55 1015.8
20260507152503 56 214 1.0 3.0 0.00 0.00 0.00 53 1015.8
20260507152003 56 217 1.0 3.0 0.00 0.00 0.00 53 1015.9
20260507151504 55 271 0.0 3.0 0.00 0.00 0.00 53 1015.9
20260507151003 55 265 0.0 2.0 0.00 0.00 0.00 54 1015.9
20260507150503 55 241 0.0 2.0 0.00 0.00 0.00 59 1015.9
20260507150004 54 230 0.0 2.0 0.00 0.00 0.00 57 1015.9
20260507145503 54 226 0.0 2.0 0.00 0.00 0.00 57 1015.9
20260507145003 54 225 0.0 2.0 0.00 0.00 0.00 59 1015.8
20260507144504 54 192 0.0 3.0 0.00 0.00 0.00 60 1015.7
20260507144003 53 203 1.0 3.0 0.00 0.00 0.00 60 1015.8
20260507143717 53 215 1.0 3.0 0.00 0.00 0.00 59 1015.8
20260507143003 52 206 0.0 3.0 0.00 0.00 0.00 61 1015.9
20260507142717 52 206 0.0 3.0 0.00 0.00 0.00 60 1015.8
20260507142003 52 239 0.0 1.0 0.00 0.00 0.00 61 1015.8
20260507141503 52 231 0.0 1.0 0.00 0.00 0.00 60 1015.8
20260507141218 52 231 0.0 2.0 0.00 0.00 0.00 59 1015.8
20260507140503 51 237 0.0 2.0 0.00 0.00 0.00 63 1015.7
20260507140004 50 231 0.0 2.0 0.00 0.00 0.00 64 1015.7
20260507135503 50 226 0.0 2.0 0.00 0.00 0.00 65 1015.6
20260507135003 50 235 0.0 2.0 0.00 0.00 0.00 66 1015.6
20260507134503 49 236 0.0 2.0 0.00 0.00 0.00 66 1015.7
20260507134003 49 234 0.0 2.0 0.00 0.00 0.00 70 1015.8
20260507133503 49 235 0.0 2.0 0.00 0.00 0.00 73 1015.7
20260507133218 49 235 0.0 2.0 0.00 0.00 0.00 75 1015.7
20260507132503 48 233 0.0 1.0 0.00 0.00 0.00 79 1015.7
20260507132003 48 0 0.0 0.0 0.00 0.00 0.00 81 1015.8
20260507131503 47 0 0.0 0.0 0.00 0.00 0.00 83 1015.8
20260507131003 47 0 0.0 0.0 0.00 0.00 0.00 85 1015.8
20260507130503 46 0 0.0 0.0 0.00 0.00 0.00 87 1015.8
20260507130004 46 0 0.0 0.0 0.00 0.00 0.00 88 1015.9
20260507125503 45 0 0.0 0.0 0.00 0.00 0.00 88 1015.9
20260507125003 45 0 0.0 0.0 0.00 0.00 0.00 89 1015.8
20260507124503 44 233 0.0 1.0 0.00 0.00 0.00 90 1015.8
20260507124003 44 233 0.0 1.0 0.00 0.00 0.00 91 1015.8
20260507123503 44 0 0.0 0.0 0.00 0.00 0.00 92 1015.9
20260507123003 43 0 0.0 0.0 0.00 0.00 0.00 93 1015.8
20260507122503 43 233 0.0 1.0 0.00 0.00 0.00 93 1015.7
20260507122004 42 252 0.0 1.0 0.00 0.00 0.00 93 1015.8
20260507121503 42 255 0.0 1.0 0.00 0.00 0.00 93 1015.7
20260507121003 42 0 0.0 0.0 0.00 0.00 0.00 93 1015.7
20260507120503 42 0 0.0 0.0 0.00 0.00 0.00 94 1015.6
20260507120004 41 0 0.0 0.0 0.00 0.00 0.00 94 1015.5
20260507115503 41 0 0.0 0.0 0.00 0.00 0.00 94 1015.5
20260507115217 40 0 0.0 0.0 0.00 0.00 0.00 94 1015.5
20260507114503 40 0 0.0 0.0 0.00 0.00 0.00 93 1015.4
20260507114003 39 0 0.0 0.0 0.00 0.00 0.00 93 1015.4
20260507113503 39 0 0.0 0.0 0.00 0.00 0.00 93 1015.4
20260507113004 39 0 0.0 0.0 0.00 0.00 0.00 93 1015.3
20260507112718 39 0 0.0 0.0 0.00 0.00 0.00 93 1015.3
20260507112003 38 0 0.0 0.0 0.00 0.00 0.00 93 1015.2
20260507111504 38 0 0.0 0.0 0.00 0.00 0.00 93 1015.1
20260507111003 38 0 0.0 0.0 0.00 0.00 0.00 93 1015.0
20260507110503 38 0 0.0 0.0 0.00 0.00 0.00 93 1015.1
20260507110217 38 0 0.0 0.0 0.00 0.00 0.00 93 1015.1
20260507105503 38 0 0.0 0.0 0.00 0.00 0.00 93 1015.1
20260507105003 38 0 0.0 0.0 0.00 0.00 0.00 93 1015.1
20260507104504 38 0 0.0 0.0 0.00 0.00 0.00 93 1015.1
20260507104003 38 0 0.0 0.0 0.00 0.00 0.00 93 1015.2
20260507103718 38 0 0.0 0.0 0.00 0.00 0.00 93 1015.1
20260507103003 38 0 0.0 0.0 0.00 0.00 0.00 93 1015.2
20260507102503 38 0 0.0 0.0 0.00 0.00 0.00 92 1015.2
20260507102216 38 0 0.0 0.0 0.00 0.00 0.00 92 1015.2
20260507101503 38 0 0.0 0.0 0.00 0.00 0.00 92 1015.1
20260507101003 38 0 0.0 0.0 0.00 0.00 0.00 92 1015.1
20260507100503 38 0 0.0 0.0 0.00 0.00 0.00 92 1015.2
20260507100004 38 0 0.0 0.0 0.00 0.00 0.00 92 1015.3
20260507095503 38 0 0.0 0.0 0.00 0.00 0.00 92 1015.2
20260507095003 38 0 0.0 0.0 0.00 0.00 0.00 92 1015.4
20260507094718 38 0 0.0 0.0 0.00 0.00 0.00 92 1015.4
20260507094003 38 0 0.0 0.0 0.00 0.00 0.00 91 1015.3
20260507093717 38 0 0.0 0.0 0.00 0.00 0.00 91 1015.3
20260507093003 39 0 0.0 0.0 0.00 0.00 0.00 91 1015.3
20260507092717 39 0 0.0 0.0 0.00 0.00 0.00 91 1015.3
20260507092003 39 0 0.0 0.0 0.00 0.00 0.00 92 1015.3
20260507091503 39 0 0.0 0.0 0.00 0.00 0.00 92 1015.2
20260507091003 39 0 0.0 0.0 0.00 0.00 0.00 91 1015.2
20260507090503 39 0 0.0 0.0 0.00 0.00 0.00 91 1015.2
20260507090004 39 0 0.0 0.0 0.00 0.00 0.00 91 1015.1
20260507085503 39 0 0.0 0.0 0.00 0.00 0.00 91 1015.1
20260507085003 39 0 0.0 0.0 0.00 0.00 0.00 91 1015.1
20260507084503 39 0 0.0 0.0 0.00 0.00 0.00 91 1015.0
20260507084003 40 0 0.0 0.0 0.00 0.00 0.00 90 1015.0
20260507083503 40 0 0.0 0.0 0.00 0.00 0.00 90 1015.0
20260507083218 40 0 0.0 0.0 0.00 0.00 0.00 90 1015.0
20260507082503 40 0 0.0 0.0 0.00 0.00 0.00 90 1015.1
20260507082218 40 0 0.0 0.0 0.00 0.00 0.00 90 1015.1
20260507081503 40 0 0.0 0.0 0.00 0.00 0.00 90 1015.2
20260507081004 40 0 0.0 0.0 0.00 0.00 0.00 90 1015.1
20260507080503 40 0 0.0 0.0 0.00 0.00 0.00 90 1015.1
20260507080218 40 0 0.0 0.0 0.00 0.00 0.00 90 1015.0
20260507075503 41 0 0.0 0.0 0.00 0.00 0.00 89 1015.1
20260507075003 41 0 0.0 0.0 0.00 0.00 0.00 89 1015.1
20260507074503 41 0 0.0 0.0 0.00 0.00 0.00 89 1015.1
20260507074003 41 0 0.0 0.0 0.00 0.00 0.00 88 1015.0
20260507073503 41 0 0.0 0.0 0.00 0.00 0.00 88 1015.1
20260507073004 41 0 0.0 0.0 0.00 0.00 0.00 88 1015.1
20260507072503 41 0 0.0 0.0 0.00 0.00 0.00 88 1015.0
20260507072003 42 0 0.0 0.0 0.00 0.00 0.00 88 1015.1
20260507071718 42 0 0.0 0.0 0.00 0.00 0.00 87 1015.1
20260507071003 42 0 0.0 0.0 0.00 0.00 0.00 87 1015.1
20260507070504 42 0 0.0 0.0 0.00 0.00 0.00 87 1015.1
20260507070007 42 0 0.0 0.0 0.00 0.00 0.00 87 1015.2
20260507065504 42 0 0.0 0.0 0.00 0.00 0.00 86 1015.2
20260507065003 42 0 0.0 0.0 0.00 0.00 0.00 86 1015.2
20260507064504 43 0 0.0 0.0 0.00 0.00 0.00 86 1015.3
20260507064003 43 0 0.0 0.0 0.00 0.00 0.00 85 1015.3
20260507063503 43 0 0.0 0.0 0.00 0.00 0.00 85 1015.3
20260507063003 43 0 0.0 0.0 0.00 0.00 0.00 85 1015.4
20260507062503 43 0 0.0 0.0 0.00 0.00 0.00 84 1015.3
20260507062003 44 0 0.0 0.0 0.00 0.00 0.00 84 1015.4
20260507061503 44 0 0.0 0.0 0.00 0.00 0.00 84 1015.5
20260507061217 44 0 0.0 0.0 0.00 0.00 0.00 84 1015.5
20260507060503 44 0 0.0 0.0 0.00 0.00 0.00 83 1015.5
20260507060217 44 0 0.0 0.0 0.00 0.00 0.00 83 1015.4
20260507055503 44 0 0.0 0.0 0.00 0.00 0.00 82 1015.3
20260507055003 44 0 0.0 0.0 0.00 0.00 0.00 81 1015.5
20260507054503 45 0 0.0 0.0 0.00 0.00 0.00 81 1015.4
20260507054003 45 0 0.0 0.0 0.00 0.00 0.00 81 1015.4
20260507053718 45 0 0.0 0.0 0.00 0.00 0.00 81 1015.4
20260507053004 45 0 0.0 0.0 0.00 0.00 0.00 81 1015.5
20260507052503 44 0 0.0 0.0 0.00 0.00 0.00 82 1015.4
20260507052003 44 0 0.0 0.0 0.00 0.00 0.00 85 1015.3
20260507051503 43 0 0.0 0.0 0.00 0.00 0.00 87 1015.3
20260507051003 43 0 0.0 0.0 0.00 0.00 0.00 88 1015.3
20260507050503 43 0 0.0 0.0 0.00 0.00 0.00 88 1015.3
20260507050003 44 0 0.0 0.0 0.00 0.00 0.00 88 1015.2
20260507045503 44 0 0.0 0.0 0.00 0.00 0.00 87 1015.2
20260507045003 44 0 0.0 0.0 0.00 0.00 0.00 86 1015.2
20260507044503 44 0 0.0 0.0 0.00 0.00 0.00 86 1015.1
20260507044003 45 0 0.0 0.0 0.00 0.00 0.00 85 1015.1
20260507043508 45 0 0.0 0.0 0.00 0.00 0.00 84 1015.1
20260507043003 45 0 0.0 0.0 0.00 0.00 0.00 84 1015.2
20260507042503 45 0 0.0 0.0 0.00 0.00 0.00 83 1015.2
20260507042003 46 0 0.0 0.0 0.00 0.00 0.00 83 1015.2
20260507041717 46 0 0.0 0.0 0.00 0.00 0.00 82 1015.2
20260507041003 46 0 0.0 0.0 0.00 0.00 0.00 82 1015.1
20260507040503 46 0 0.0 0.0 0.00 0.00 0.00 82 1015.1
20260507040006 46 0 0.0 0.0 0.00 0.00 0.00 81 1015.1
20260507035503 46 0 0.0 0.0 0.00 0.00 0.00 81 1015.1
20260507035003 46 0 0.0 0.0 0.00 0.00 0.00 80 1015.1
20260507034504 47 0 0.0 0.0 0.00 0.00 0.00 80 1015.1
20260507034003 47 0 0.0 0.0 0.00 0.00 0.00 79 1015.1
20260507033503 47 0 0.0 0.0 0.00 0.00 0.00 79 1015.1
20260507033218 47 0 0.0 0.0 0.00 0.00 0.00 79 1015.0
20260507032503 47 0 0.0 0.0 0.00 0.00 0.00 78 1015.1
20260507032003 48 0 0.0 0.0 0.00 0.00 0.00 78 1015.1
20260507031503 48 0 0.0 0.0 0.00 0.00 0.00 78 1015.1
20260507031003 48 0 0.0 0.0 0.00 0.00 0.00 78 1015.0
20260507030503 48 0 0.0 0.0 0.00 0.00 0.00 77 1015.0
20260507030003 48 0 0.0 0.0 0.00 0.00 0.00 76 1015.0
20260507025503 49 0 0.0 0.0 0.00 0.00 0.00 76 1015.0
20260507025003 49 0 0.0 0.0 0.00 0.00 0.00 75 1015.0
20260507024503 49 0 0.0 0.0 0.00 0.00 0.00 75 1014.9
20260507024218 49 0 0.0 0.0 0.00 0.00 0.00 74 1014.9
20260507023503 50 0 0.0 0.0 0.00 0.00 0.00 72 1014.8
20260507023003 50 0 0.0 0.0 0.00 0.00 0.00 71 1014.9
20260507022504 50 0 0.0 0.0 0.00 0.00 0.00 70 1014.7
20260507022003 50 0 0.0 0.0 0.00 0.00 0.00 70 1014.7
20260507021503 51 0 0.0 0.0 0.00 0.00 0.00 70 1014.6
20260507021003 51 0 0.0 0.0 0.00 0.00 0.00 70 1014.6
20260507020503 51 0 0.0 0.0 0.00 0.00 0.00 70 1014.5
20260507020003 52 0 0.0 0.0 0.00 0.00 0.00 70 1014.4
20260507015503 52 0 0.0 0.0 0.00 0.00 0.00 70 1014.3
20260507015004 52 0 0.0 0.0 0.00 0.00 0.00 67 1014.2
20260507014503 53 0 0.0 0.0 0.00 0.00 0.00 65 1014.2
20260507014003 53 0 0.0 0.0 0.00 0.00 0.00 65 1014.3
20260507013503 53 0 0.0 0.0 0.00 0.00 0.00 63 1014.2
20260507013003 54 0 0.0 0.0 0.00 0.00 0.00 63 1014.2
20260507012504 54 0 0.0 0.0 0.00 0.00 0.00 62 1014.1
20260507012003 54 0 0.0 0.0 0.00 0.00 0.00 62 1014.1
20260507011503 54 0 0.0 0.0 0.00 0.00 0.00 61 1014.1
20260507011003 55 0 0.0 0.0 0.00 0.00 0.00 60 1014.0
20260507010503 55 0 0.0 0.0 0.00 0.00 0.00 60 1013.9
20260507010004 55 0 0.0 0.0 0.00 0.00 0.00 59 1013.9
20260507005718 55 0 0.0 0.0 0.00 0.00 0.00 59 1013.9
20260507005003 56 0 0.0 0.0 0.00 0.00 0.00 59 1013.9
20260507004503 56 0 0.0 0.0 0.00 0.00 0.00 59 1013.9
20260507004003 56 0 0.0 0.0 0.00 0.00 0.00 59 1013.8
20260507003503 56 0 0.0 0.0 0.00 0.00 0.00 58 1013.8
20260507003003 56 0 0.0 0.0 0.00 0.00 0.00 58 1013.8
20260507002718 57 0 0.0 0.0 0.00 0.00 0.00 58 1013.7
20260507002003 57 305 0.0 1.0 0.00 0.00 0.00 58 1013.6
20260507001503 57 282 0.0 1.0 0.00 0.00 0.00 57 1013.6
20260507001003 57 0 0.0 0.0 0.00 0.00 0.00 58 1013.6
20260507000503 58 0 0.0 0.0 0.00 0.00 0.00 58 1013.5
20260507000004 58 0 0.0 0.0 0.00 0.00 0.00 58 1013.5